Location: Eenumerhoogte
(53.3420°N, 6.7843°E)
Time: 11:38:56
(UTC+00:00)

CZ-2C R/B - Pass Details

Date: 15 May 2026
Orbit: 703 x 901 km, 98.2° (Epoch: 8 June)

Event Time Altitude Azimuth Distance (km) Brightness Sun altitude
Rises 22:58:33 0° 18° (NNE) 3,496 7.6 -17.3°
Reaches altitude 10° 23:01:03 10° 24° (NNE) 2,569 6.6 -17.4°
Maximum altitude 23:06:36 47° 98° (E) 1,180 3.8 -17.4°
Enters shadow 23:09:27 27° 156° (SSE) 1,668 4.2 -17.5°
